Вернуться в каталог

INTELSAT 33E

АктивенСвязьGEO
NORAD 41748·PAYLOAD· XX

Запущен Aug 24, 2016 с Guiana Space Centre

Loading…

TLE

СвежийSource: Space-Track

Эпоха: Sep 14, 2026, 19:03 UTC

1 41748U 16053B   26257.79390769  .00000130  00000-0  00000-0 0  9995
2 41748   1.8011  82.8744 0023670 190.7393  30.8236  1.00223277 37141

Отслеживайте INTELSAT 33E в реальном времени с AllMySat

Download on the App Store